FW3224 Weather Reports


Display with metric or nautical units.
time (UTC)temp
F
wind
direction
speed
MPH
gust
MPH
rain 1hr
in
rain 24hr
in
rain mn
in
humidity
%
barometer
mb
20260503210039 61 317 0.0 2.0 0.00 0.00 0.00 90 1016.2
20260503205538 61 317 0.0 3.0 0.00 0.00 0.00 90 1016.2
20260503205040 61 317 1.0 4.0 0.00 0.00 0.00 90 1016.2
20260503204535 61 337 0.0 4.0 0.00 0.00 0.00 89 1016.1
20260503204033 62 338 0.0 3.0 0.00 0.00 0.00 89 1016.0
20260503203534 62 282 1.0 3.0 0.00 0.00 0.00 89 1016.0
20260503203036 62 311 0.0 4.0 0.00 0.00 0.00 89 1015.9
20260503202532 62 355 0.0 4.0 0.00 0.00 0.00 89 1015.7
20260503202034 62 333 1.0 5.0 0.00 0.00 0.00 89 1015.7
20260503201529 62 319 1.0 5.0 0.00 0.00 0.00 89 1015.7
20260503201029 62 305 0.0 5.0 0.00 0.00 0.00 89 1015.6
20260503200531 62 297 1.0 5.0 0.00 0.00 0.00 89 1015.6
20260503200028 62 331 1.0 5.0 0.00 0.00 0.00 88 1015.6
20260503195527 62 325 2.0 5.0 0.00 0.00 0.00 88 1015.6
20260503195026 62 328 1.0 4.0 0.00 0.00 0.00 88 1015.6
20260503194527 63 355 0.0 4.0 0.00 0.00 0.00 88 1015.5
20260503194026 63 348 1.0 4.0 0.00 0.00 0.00 88 1015.4
20260503193527 63 316 1.0 4.0 0.00 0.00 0.00 88 1015.3
20260503193025 63 355 1.0 4.0 0.00 0.00 0.00 88 1015.2
20260503192524 63 321 1.0 4.0 0.00 0.00 0.00 88 1015.2
20260503192029 63 330 1.0 4.0 0.00 0.00 0.00 88 1015.1
20260503191524 63 326 1.0 4.0 0.00 0.00 0.00 88 1015.1
20260503191024 63 321 2.0 4.0 0.00 0.00 0.00 88 1015.1
20260503190524 63 346 2.0 5.0 0.00 0.00 0.00 88 1015.1
20260503190025 63 313 2.0 7.0 0.00 0.00 0.00 87 1015.2
20260503185524 63 293 2.0 7.0 0.00 0.00 0.00 88 1015.2
20260503185022 63 324 2.0 6.0 0.00 0.00 0.00 87 1015.1
20260503184522 63 324 2.0 6.0 0.00 0.00 0.00 87 1015.2
20260503184021 63 333 2.0 5.0 0.00 0.00 0.00 87 1015.3
20260503183521 64 284 2.0 5.0 0.00 0.00 0.00 86 1015.3
20260503183024 64 309 2.0 6.0 0.00 0.00 0.00 86 1015.2
20260503182520 64 299 2.0 8.0 0.00 0.00 0.00 86 1015.2
20260503182021 64 281 3.0 8.0 0.00 0.00 0.00 87 1015.1
20260503181520 63 277 3.0 6.0 0.00 0.00 0.00 87 1015.1
20260503181022 63 340 3.0 8.0 0.00 0.00 0.00 88 1015.2
20260503180519 63 297 2.0 7.0 0.00 0.00 0.00 88 1015.1
20260503180018 63 286 2.0 6.0 0.00 0.00 0.00 87 1015.1
20260503175517 63 275 2.0 6.0 0.00 0.00 0.00 87 1015.1
20260503175016 63 288 2.0 7.0 0.00 0.00 0.00 87 1015.2
20260503174519 64 317 3.0 8.0 0.00 0.00 0.00 87 1015.2
20260503174019 64 282 3.0 8.0 0.00 0.00 0.00 87 1015.2
20260503173515 64 332 3.0 8.0 0.00 0.00 0.00 87 1015.3
20260503173014 64 317 4.0 9.0 0.00 0.00 0.00 87 1015.3
20260503172517 64 311 4.0 9.0 0.00 0.00 0.00 87 1015.4
20260503172013 64 308 3.0 8.0 0.00 0.00 0.00 87 1015.5
20260503171511 64 342 3.0 6.0 0.00 0.00 0.00 87 1015.5
20260503171013 64 289 2.0 6.0 0.00 0.00 0.00 87 1015.6
20260503170512 64 323 3.0 5.0 0.00 0.00 0.00 87 1015.6
20260503150556 65 298 0.0 3.0 0.00 0.00 0.00 84 1016.4
20260503131044 66 289 2.0 5.0 0.00 0.00 0.00 83 1017.4
20260503130544 66 329 1.0 8.0 0.00 0.00 0.00 82 1017.5
20260503110541 67 5 1.0 6.0 0.00 0.00 0.00 80 1018.0
20260503081538 70 276 2.0 8.0 0.00 0.00 0.00 76 1017.6
20260503081034 70 110 1.0 8.0 0.00 0.00 0.00 76 1017.6
20260503080537 70 128 2.0 8.0 0.00 0.00 0.00 76 1017.6
20260503072533 71 18 1.0 6.0 0.00 0.00 0.00 76 1017.3
20260503072035 71 5 1.0 6.0 0.00 0.00 0.00 76 1017.3
20260503071552 71 360 1.0 10.0 0.00 0.00 0.00 76 1017.3
20260503071032 71 71 3.0 10.0 0.00 0.00 0.00 76 1017.3
20260503070532 72 138 1.0 8.0 0.00 0.00 0.00 75 1017.3
20260503055027 75 18 0.0 5.0 0.00 0.00 0.00 64 1017.5
20260503054529 75 275 1.0 5.0 0.00 0.00 0.00 66 1017.5
20260503054027 75 21 1.0 3.0 0.00 0.00 0.00 67 1017.5
20260503053528 76 163 0.0 9.0 0.00 0.00 0.00 67 1017.5
20260503053035 76 24 1.0 9.0 0.00 0.00 0.00 68 1017.6
20260503052526 76 188 1.0 6.0 0.00 0.00 0.00 67 1017.6
20260503052028 76 68 1.0 6.0 0.00 0.00 0.00 66 1017.6
20260503051529 76 23 1.0 4.0 0.00 0.00 0.00 66 1017.6
20260503051025 76 24 2.0 4.0 0.00 0.00 0.00 65 1017.8
20260503050524 77 55 1.0 3.0 0.00 0.00 0.00 64 1017.7
20260503050023 77 134 1.0 4.0 0.00 0.00 0.00 64 1017.7
20260503045523 78 294 2.0 4.0 0.00 0.00 0.00 62 1017.8
20260503045023 78 63 1.0 6.0 0.00 0.00 0.00 59 1017.8
20260503044541 79 331 1.0 6.0 0.00 0.00 0.00 55 1017.9
20260503044026 79 267 2.0 11.0 0.00 0.00 0.00 51 1017.9
20260503043521 79 309 4.0 11.0 0.00 0.00 0.00 50 1017.8
20260503043037 79 51 2.0 8.0 0.00 0.00 0.00 51 1017.8
20260503042520 79 254 2.0 9.0 0.00 0.00 0.00 51 1017.9
20260503042020 80 333 2.0 9.0 0.00 0.00 0.00 52 1018.0
20260503041520 80 263 1.0 7.0 0.00 0.00 0.00 53 1018.0
20260503041019 80 254 1.0 7.0 0.00 0.00 0.00 52 1018.1
20260503040519 80 172 1.0 7.0 0.00 0.00 0.00 50 1018.0
20260503040018 80 173 1.0 9.0 0.00 0.00 0.00 50 1018.0
20260503035517 80 163 4.0 9.0 0.00 0.00 0.00 50 1018.1
20260503035016 80 173 1.0 6.0 0.00 0.00 0.00 54 1018.1
20260503034515 79 261 0.0 8.0 0.00 0.00 0.00 51 1018.2
20260503034013 79 309 1.0 9.0 0.00 0.00 0.00 51 1018.2
20260503033517 79 70 2.0 11.0 0.00 0.00 0.00 51 1018.2
20260503033011 79 263 4.0 10.0 0.00 0.00 0.00 52 1018.4
20260503032510 79 306 1.0 12.0 0.00 0.00 0.00 51 1018.4
20260503032016 79 316 5.0 12.0 0.00 0.00 0.00 50 1018.5
20260503031509 79 288 3.0 9.0 0.00 0.00 0.00 51 1018.5
20260503031009 79 5 2.0 8.0 0.00 0.00 0.00 52 1018.6
20260503030507 79 306 2.0 8.0 0.00 0.00 0.00 52 1018.6
20260503030007 79 49 3.0 11.0 0.00 0.00 0.00 52 1018.7
20260503025506 78 270 3.0 11.0 0.00 0.00 0.00 52 1018.8
20260503025005 79 29 3.0 8.0 0.00 0.00 0.00 53 1018.9
20260503024504 79 321 1.0 9.0 0.00 0.00 0.00 53 1018.9
20260503024006 79 212 1.0 7.0 0.00 0.00 0.00 52 1019.1
20260503023503 78 49 2.0 10.0 0.00 0.00 0.00 53 1019.1
20260503023001 79 302 3.0 10.0 0.00 0.00 0.00 52 1019.2
20260503022559 78 257 2.0 8.0 0.00 0.00 0.00 53 1019.3
20260503022102 78 332 1.0 9.0 0.00 0.00 0.00 54 1019.4
20260503021601 78 308 2.0 9.0 0.00 0.00 0.00 54 1019.5
20260503021056 78 290 4.0 14.0 0.00 0.00 0.00 54 1019.6
20260503020555 77 345 3.0 11.0 0.00 0.00 0.00 55 1019.7
20260503020057 77 15 3.0 11.0 0.00 0.00 0.00 54 1019.7
20260503015551 77 312 2.0 10.0 0.00 0.00 0.00 56 1019.9
20260503015050 77 29 2.0 10.0 0.00 0.00 0.00 57 1020.0
20260503014550 77 243 3.0 10.0 0.00 0.00 0.00 56 1020.1
20260503014049 77 288 3.0 9.0 0.00 0.00 0.00 57 1020.2
20260503013549 76 332 1.0 11.0 0.00 0.00 0.00 59 1020.3
20260503013046 76 281 4.0 11.0 0.00 0.00 0.00 59 1020.5
20260503012546 76 271 4.0 9.0 0.00 0.00 0.00 59 1020.6
20260503012044 75 283 2.0 9.0 0.00 0.00 0.00 60 1020.6
20260503011550 75 284 2.0 11.0 0.00 0.00 0.00 60 1020.6
20260503011042 75 260 5.0 11.0 0.00 0.00 0.00 60 1020.7
20260503010540 75 45 2.0 9.0 0.00 0.00 0.00 60 1020.9
20260503010041 75 270 3.0 10.0 0.00 0.00 0.00 60 1020.9
20260503005538 75 273 3.0 10.0 0.00 0.00 0.00 62 1021.0
20260503005037 74 184 3.0 11.0 0.00 0.00 0.00 63 1020.9
20260503004537 74 306 5.0 11.0 0.00 0.00 0.00 63 1021.0
20260503004035 74 44 1.0 11.0 0.00 0.00 0.00 64 1021.2
20260503003534 74 327 3.0 10.0 0.00 0.00 0.00 64 1021.2
20260503003033 73 149 2.0 15.0 0.00 0.00 0.00 64 1021.3
20260503002532 73 294 6.0 15.0 0.00 0.00 0.00 63 1021.3
20260503002032 73 338 3.0 10.0 0.00 0.00 0.00 64 1021.5
20260503001530 73 322 3.0 8.0 0.00 0.00 0.00 65 1021.5
20260503001032 73 306 3.0 9.0 0.00 0.00 0.00 65 1021.6
20260503000530 73 337 3.0 18.0 0.00 0.00 0.00 66 1021.6
20260503000042 73 264 6.0 18.0 0.00 0.00 0.00 64 1021.6
20260502235527 73 269 3.0 12.0 0.00 0.00 0.00 66 1021.6
20260502235025 72 309 5.0 12.0 0.00 0.00 0.00 67 1021.6
20260502234524 72 268 4.0 12.0 0.00 0.00 0.00 67 1021.6
20260502234023 72 221 3.0 14.0 0.00 0.00 0.00 69 1021.6
20260502233523 72 302 3.0 14.0 0.00 0.00 0.00 69 1021.6
20260502233022 72 290 3.0 11.0 0.00 0.00 0.00 70 1021.6
20260502232520 71 317 5.0 11.0 0.00 0.00 0.00 71 1021.7
20260502232019 71 300 3.0 10.0 0.00 0.00 0.00 72 1021.8
20260502231519 71 346 5.0 11.0 0.00 0.00 0.00 72 1021.8
20260502231017 70 255 3.0 11.0 0.00 0.00 0.00 73 1021.9
20260502230516 70 329 2.0 10.0 0.00 0.00 0.00 74 1021.8
20260502230015 70 23 3.0 10.0 0.00 0.00 0.00 74 1021.8
20260502225518 70 333 3.0 10.0 0.00 0.00 0.00 75 1021.9
20260502225015 70 287 4.0 12.0 0.00 0.00 0.00 75 1022.0
20260502224517 69 321 2.0 12.0 0.00 0.00 0.00 76 1021.9
20260502224017 69 337 4.0 9.0 0.00 0.00 0.00 76 1021.9
20260502223512 69 285 2.0 8.0 0.00 0.00 0.00 76 1021.8
20260502223025 69 349 3.0 13.0 0.00 0.00 0.00 77 1022.0
20260502222512 68 263 2.0 8.0 0.00 0.00 0.00 77 1022.0
20260502222010 68 296 2.0 9.0 0.00 0.00 0.00 78 1021.9
20260502221507 68 311 2.0 8.0 0.00 0.00 0.00 78 1021.9
20260502221005 67 313 2.0 8.0 0.00 0.00 0.00 79 1021.9
20260502220504 67 282 1.0 9.0 0.00 0.00 0.00 81 1021.9
20260502220003 66 313 2.0 9.0 0.00 0.00 0.00 82 1021.9
20260502215502 65 334 1.0 8.0 0.00 0.00 0.00 83 1021.8
20260502215004 65 239 1.0 6.0 0.00 0.00 0.00 84 1021.8
20260502214503 65 315 1.0 6.0 0.00 0.00 0.00 84 1021.9
20260502214101 64 302 0.0 6.0 0.00 0.00 0.00 85 1021.9
20260502213600 64 300 1.0 6.0 0.00 0.00 0.00 85 1021.7
20260502213100 64 225 1.0 5.0 0.00 0.00 0.00 86 1021.5
20260502212601 64 300 0.0 3.0 0.00 0.00 0.00 86 1021.4
20260502212100 64 254 0.0 2.0 0.00 0.00 0.00 86 1021.5
20260502211600 64 319 0.0 5.0 0.00 0.00 0.00 86 1021.6
20260502211059 63 296 1.0 5.0 0.00 0.00 0.00 86 1021.6
20260502210558 63 281 0.0 3.0 0.00 0.00 0.00 86 1021.5